Погода в Чамьюва

Турция     36°33′35″N   30°33′10″E
темп.,
°C
ветер,
м/с
пор.,
м/с
влажн.,
%
обл.,
%
осадки,
мм/ч
давл.,
гПа
погр.,
м
14 апреля, ср
ср1400:00+10с348453 0.0 1021137
03:00+10с22865 0.0 1020109
06:00+10с228521 0.0 102083
09:00+13вюв11715 0.0 1021470
12:00+14юв327189 0.0 1021716
15:00+14ююв337298 0.1 1020732
18:00+14ююв2273100 0.0 1019563
21:00+12св1184100 0.0 1020137
15 апреля, чт
чт1500:00+12ссв228667 0.0 1019142
03:00+11ссв118820 0.0 1019112
06:00+10с118868 0.0 101881
09:00+14вюв11735 0.0 1019436
12:00+17юв43618 0.0 1019917
15:00+18ююв44551 0.0 1017886
18:00+16юв32616 0.0 1016512
21:00+12с1180100 0.0 101754
16 апреля, пт
пт1600:00+12ссз1182100 0.0 101735
03:00+11ссз2277100 0.0 101658
06:00+11ссз226696 0.0 101644
09:00+15в115664 0.0 1017292
12:00+18юв3247100 0.0 1017930
15:00+19ююв32478 0.0 1016956
18:00+18ююв215443 0.0 1016374
21:00+14ссз1170100 0.0 101711
17 апреля, сб
сб1700:00+14с2266100 0.0 101729
03:00+15с2259100 0.0 101515
06:00+15сз115794 0.0 101511
09:00+19ю2245100 0.0 1017288
12:00+19всв2245100 0.0 1017427
15:00+21юв2238100 0.0 1016608
18:00+20вюв1145100 0.0 1016186
21:00+17з2259100 0.0 101816
18 апреля, вс
вс1800:00+16с1160100 0.0 101815
03:00+17с3252100 0.0 101621
06:00+17сз2248100 0.0 101612
09:00+21с1242100 0.0 1017147
12:00+25ююв3231100 0.0 1017680
15:00+25в2232100 0.0 1016654
18:00+23св1242100 0.0 101674
21:00+21ссз323992 0.0 101622